星链-5610 (STARLINK-5610 )

导读 | 星芒AI

STARLINK-5610 是 SpaceX Starlink 卫星互联网项目中的一颗低轨卫星,属于第56批发射的星链卫星之一。该卫星运行在约550公里高度的近地轨道,旨在为全球用户提供高速、低延迟的互联网服务。作为星链星座的一部分,STARLINK-5610 采用先进的推进系统和激光通信技术,支持与其他星链卫星的高速数据传输,提升网络覆盖与稳定性。该卫星于2023年发射,是SpaceX构建全球宽带网络的重要组成。

基本信息
目录编号:
57244
目录名称:
STARLINK-5610
国际标识:
2023-094AC
轨道中心:
EARTH
卫星名称:
星链-5610
卫星全名:
星链-5610 (STARLINK-5610 )
卫星状态:
在轨 (已飞行851 天)
发射日期:
2023-07-07 UTC
国别 :
美国 (US)
星等 :
--
轨道信息
数据来源 国际轨道数据
星历时间: 2025-11-03T16:49:19+0800
1天前
查看轨道信息
半长轴: 6937.233km
偏心率: 0.0001264
轨道倾角: 43.006°
近地点辐角 258.822°
升交点赤经 344.082°
平近点角 101.248°
近地点: 558.221km
远地点: 559.975km
周期: 95.838分钟
每日圈数: 15.025308
详细信息
固有亮度:
5
最大亮度:
2.4
卫星平台:
Starlink v1.5
覆盖范围:
全球
运营商:
太空探索技术公司
运营商所在国:
美国
制造商(研发单位):
太空探索技术公司
制造商所在国:
美国
使用方式:
暂无
卫星简介
星链(Starlink)计划是由太空探索技术公司(SpaceX)提出的一个巨型低轨卫星互联网星座项目,计划在2019年至2024年间在太空搭建由约1.2万颗卫星组成的“星链”网络,其中1584颗将部署在地球上空550千米处的近地轨道,并从2020年开始工作。该卫星仍在工作。
2D轨道图
3D轨道图
轨道高度分析图
轨道倾角分析图
轨道综合分析图
查看轨道综合分析图